TimeCST,TemperatureF,Dew PointF,Humidity,Sea Level PressureIn,VisibilityMPH,Wind Direction,Wind SpeedMPH,Gust SpeedMPH,PrecipitationIn,Events,Conditions,WindDirDegrees,DateUTC
12:14 AM,53.6,42.8,67,29.69,10.0,South,16.1,21.9,N/A,,Clear,190,2012-11-22 06:14:00
12:34 AM,55.4,42.8,63,29.69,10.0,South,15.0,19.6,N/A,,Clear,190,2012-11-22 06:34:00
12:53 AM,55.4,42.8,63,29.68,10.0,South,13.8,25.3,N/A,,Clear,190,2012-11-22 06:53:00
1:14 AM,55.4,42.8,63,29.67,10.0,SSW,13.8,23.0,N/A,,Clear,200,2012-11-22 07:14:00
1:34 AM,55.4,42.8,63,29.67,10.0,South,13.8,21.9,N/A,,Clear,190,2012-11-22 07:34:00
1:53 AM,53.6,42.8,67,29.66,10.0,South,15.0,21.9,N/A,,Clear,190,2012-11-22 07:53:00
2:13 AM,53.6,42.8,67,29.66,10.0,South,12.7,19.6,N/A,,Clear,190,2012-11-22 08:13:00
2:34 AM,53.6,42.8,67,29.65,10.0,South,12.7,18.4,N/A,,Clear,190,2012-11-22 08:34:00
2:53 AM,53.6,42.8,67,29.64,10.0,SSW,10.4,20.7,N/A,,Clear,200,2012-11-22 08:53:00
3:13 AM,53.6,42.8,67,29.64,10.0,SSW,11.5,19.6,N/A,,Clear,200,2012-11-22 09:13:00
3:34 AM,53.6,42.8,67,29.63,10.0,SSW,10.4,18.4,N/A,,Clear,200,2012-11-22 09:34:00
3:53 AM,53.6,42.8,67,29.63,10.0,SSW,10.4,18.4,N/A,,Clear,200,2012-11-22 09:53:00
4:13 AM,53.6,42.8,67,29.63,10.0,SSW,6.9,-,N/A,,Clear,210,2012-11-22 10:13:00
4:34 AM,53.6,42.8,67,29.63,10.0,SSW,9.2,-,N/A,,Clear,210,2012-11-22 10:34:00
4:53 AM,53.6,42.8,67,29.63,10.0,SSW,5.8,-,N/A,,Clear,210,2012-11-22 10:53:00
5:13 AM,53.6,42.8,67,29.63,10.0,SW,6.9,-,N/A,,Clear,220,2012-11-22 11:13:00
5:34 AM,53.6,42.8,67,29.63,10.0,SW,6.9,-,N/A,,Clear,220,2012-11-22 11:34:00
5:53 AM,51.8,42.8,71,29.62,10.0,SSW,9.2,-,N/A,,Clear,200,2012-11-22 11:53:00
6:13 AM,51.8,42.8,71,29.62,10.0,SSW,6.9,20.7,N/A,,Clear,200,2012-11-22 12:13:00
6:34 AM,51.8,42.8,71,29.62,10.0,SSW,8.1,-,N/A,,Clear,200,2012-11-22 12:34:00
6:53 AM,51.8,42.8,71,29.62,10.0,SSW,4.6,-,N/A,,Clear,210,2012-11-22 12:53:00
7:13 AM,50.0,42.8,76,29.62,10.0,SSW,3.5,-,N/A,,Clear,200,2012-11-22 13:13:00
7:34 AM,50.0,42.8,76,29.63,10.0,SW,5.8,-,N/A,,Clear,220,2012-11-22 13:34:00
7:53 AM,51.8,42.8,71,29.63,10.0,WSW,4.6,-,N/A,,Clear,240,2012-11-22 13:53:00
8:13 AM,51.8,42.8,71,29.63,10.0,SW,4.6,-,N/A,,Clear,230,2012-11-22 14:13:00
8:33 AM,51.8,42.8,71,29.63,10.0,SW,4.6,-,N/A,,Clear,230,2012-11-22 14:33:00
8:53 AM,51.8,42.8,71,29.64,10.0,SW,9.2,-,N/A,,Clear,230,2012-11-22 14:53:00
9:14 AM,51.8,42.8,71,29.63,10.0,SW,8.1,-,N/A,,Clear,220,2012-11-22 15:14:00
9:33 AM,53.6,42.8,67,29.63,10.0,SW,4.6,-,N/A,,Clear,220,2012-11-22 15:33:00
9:53 AM,53.6,42.8,67,29.63,10.0,SW,3.5,-,N/A,,Clear,230,2012-11-22 15:53:00
10:14 AM,55.4,42.8,63,29.63,10.0,SW,5.8,-,N/A,,Clear,230,2012-11-22 16:14:00
10:33 AM,55.4,41.0,58,29.64,10.0,WSW,9.2,17.3,N/A,,Clear,250,2012-11-22 16:33:00
10:53 AM,55.4,42.8,63,29.64,10.0,WSW,9.2,-,N/A,,Clear,250,2012-11-22 16:53:00
11:14 AM,55.4,41.0,58,29.63,10.0,West,11.5,18.4,N/A,,Clear,260,2012-11-22 17:14:00
11:33 AM,55.4,41.0,58,29.64,10.0,West,12.7,19.6,N/A,,Clear,260,2012-11-22 17:33:00
11:53 AM,55.4,39.2,54,29.63,10.0,West,15.0,19.6,N/A,,Clear,280,2012-11-22 17:53:00
12:14 PM,51.8,37.4,58,29.65,10.0,West,16.1,24.2,N/A,,Clear,270,2012-11-22 18:14:00
12:33 PM,51.8,37.4,58,29.65,10.0,West,19.6,-,N/A,,Clear,280,2012-11-22 18:33:00
12:53 PM,51.8,37.4,58,29.66,10.0,WNW,18.4,-,N/A,,Clear,300,2012-11-22 18:53:00
1:14 PM,48.2,37.4,66,29.67,10.0,WNW,16.1,-,N/A,,Clear,290,2012-11-22 19:14:00
1:33 PM,48.2,37.4,66,29.69,10.0,West,24.2,31.1,N/A,,Clear,280,2012-11-22 19:33:00
1:53 PM,44.6,35.6,71,29.70,10.0,WNW,21.9,28.8,N/A,,Clear,300,2012-11-22 19:53:00
2:14 PM,44.6,35.6,71,29.72,10.0,WNW,18.4,31.1,N/A,,Scattered Clouds,290,2012-11-22 20:14:00
2:33 PM,39.2,33.8,81,29.74,10.0,WNW,28.8,35.7,N/A,,Mostly Cloudy,290,2012-11-22 20:33:00
2:53 PM,39.2,33.8,81,29.77,10.0,WNW,21.9,33.4,N/A,,Overcast,290,2012-11-22 20:53:00
3:14 PM,39.2,32.0,75,29.77,10.0,WNW,26.5,36.8,N/A,,Overcast,300,2012-11-22 21:14:00
3:33 PM,37.4,30.2,75,29.78,10.0,WNW,21.9,28.8,N/A,,Mostly Cloudy,290,2012-11-22 21:33:00
3:53 PM,37.4,30.2,75,29.80,10.0,WNW,21.9,28.8,N/A,,Mostly Cloudy,290,2012-11-22 21:53:00
4:14 PM,37.4,30.2,75,29.82,10.0,WNW,20.7,29.9,N/A,,Overcast,290,2012-11-22 22:14:00
4:33 PM,35.6,30.2,81,29.82,7.0,WNW,21.9,32.2,N/A,Rain,Rain,290,2012-11-22 22:33:00
4:53 PM,33.8,30.2,87,29.84,3.0,WNW,20.7,31.1,N/A,Snow,Light Snow,290,2012-11-22 22:53:00
5:14 PM,32.0,30.2,93,29.86,7.0,WNW,20.7,27.6,N/A,Snow,Light Snow,290,2012-11-22 23:14:00
5:33 PM,32.0,30.2,93,29.88,5.0,West,19.6,27.6,N/A,Snow,Light Snow,280,2012-11-22 23:33:00
5:53 PM,32.0,28.4,87,29.88,4.0,WNW,24.2,36.8,N/A,Snow,Light Snow,290,2012-11-22 23:53:00
6:14 PM,32.0,28.4,87,29.88,5.0,WNW,31.1,40.3,N/A,,Mostly Cloudy,290,2012-11-23 00:14:00
6:33 PM,32.0,28.4,87,29.89,10.0,WNW,27.6,40.3,N/A,,Overcast,290,2012-11-23 00:33:00
6:53 PM,30.2,26.6,86,29.90,5.0,WNW,34.5,42.6,N/A,Snow,Light Snow,290,2012-11-23 00:53:00
7:14 PM,30.2,26.6,86,29.91,10.0,WNW,21.9,32.2,N/A,Snow,Light Snow,290,2012-11-23 01:14:00
7:33 PM,30.2,26.6,86,29.90,10.0,WNW,26.5,35.7,N/A,,Mostly Cloudy,290,2012-11-23 01:33:00
7:53 PM,30.2,24.8,80,29.92,10.0,WNW,21.9,35.7,N/A,,Scattered Clouds,290,2012-11-23 01:53:00
8:13 PM,30.2,24.8,80,29.93,10.0,WNW,19.6,27.6,N/A,,Mostly Cloudy,290,2012-11-23 02:13:00
8:33 PM,30.2,24.8,80,29.93,10.0,WNW,26.5,35.7,N/A,,Overcast,290,2012-11-23 02:33:00
8:54 PM,30.2,24.8,80,29.94,10.0,WNW,24.2,32.2,N/A,,Overcast,290,2012-11-23 02:54:00
9:13 PM,28.4,23.0,80,29.93,10.0,WNW,29.9,36.8,N/A,,Overcast,290,2012-11-23 03:13:00
9:33 PM,28.4,23.0,80,29.94,10.0,WNW,31.1,38.0,N/A,,Overcast,290,2012-11-23 03:33:00
9:54 PM,28.4,21.2,74,29.93,10.0,WNW,32.2,40.3,N/A,,Overcast,290,2012-11-23 03:54:00
10:13 PM,26.6,21.2,80,29.95,10.0,West,25.3,39.1,N/A,,Overcast,280,2012-11-23 04:13:00
10:33 PM,26.6,19.4,74,29.94,10.0,WNW,31.1,43.7,N/A,,Overcast,300,2012-11-23 04:33:00
10:54 PM,24.8,17.6,74,29.96,10.0,WNW,28.8,42.6,N/A,,Mostly Cloudy,290,2012-11-23 04:54:00
11:13 PM,24.8,17.6,74,29.97,10.0,WNW,26.5,33.4,N/A,,Overcast,290,2012-11-23 05:13:00
11:33 PM,23.0,17.6,80,29.98,10.0,West,25.3,31.1,N/A,,Overcast,280,2012-11-23 05:33:00
11:54 PM,23.0,15.8,74,29.98,10.0,WNW,23.0,32.2,N/A,,Overcast,290,2012-11-23 05:54:00